Simultaneous Nadir Overpasses (SNOs) Predictions

Prediction of SNOs between FY3D and AQUA Satellite Orbit:

Table of predicted SNOs for the next 14.0 days since TLE Epoch: 11/8/2025
Index Date (FY3D) Time (FY3D) Lat,Lon (FY3D) SZA (FY3D ) Date (AQUA) Time (AQUA) Lat,Lon (AQUA) SZA (AQUA ) Distance(km) Time Diff (sec)
1 11/09/2025 15:58:09 -79.49, 112.89 83.50 11/09/2025 15:58:47 -79.50, 112.86 83.50 0.75 38
2 11/09/2025 16:48:46 79.25, -77.72 96.26 11/09/2025 16:47:58 79.26, -77.76 96.26 0.87 48
3 11/12/2025 01:28:45 -79.45, -29.33 82.88 11/12/2025 01:28:52 -79.45, -29.23 82.89 1.92 7
4 11/14/2025 10:08:41 79.56, 19.77 97.87 11/14/2025 10:09:43 79.56, 19.85 97.86 1.60 62
5 11/14/2025 10:59:17 -79.29,-170.50 82.42 11/14/2025 10:58:53 -79.29,-170.59 82.42 2.13 24
6 11/16/2025 19:39:12 79.40,-121.40 98.30 11/16/2025 19:39:42 79.41,-121.54 98.31 2.91 30
7 11/16/2025 20:29:51 -79.22, 47.46 81.89 11/16/2025 20:28:54 -79.22, 47.46 81.89 0.08 57
8 11/19/2025 05:09:47 79.34, 96.54 98.81 11/19/2025 05:09:43 79.35, 96.48 98.81 1.18 4
9 11/21/2025 13:49:45 -79.53, 145.02 80.47 11/21/2025 13:50:32 -79.52, 145.12 80.48 2.23 47



Historial Predications of SNOs between FY3D and AQUA
